Weather Roundup
Issued by NWS

Home | Current Version | Previous Version | Text Only | Print | Product List | Glossary On
Versions: 1 2 3 4 5 6 7 8 9 10 11 12 13 14 15 16 17 18 19 20 21 22 23 24 25 26 27 28 29 30 31 32 33 34 35 36 37 38 39 40 41 42 43 44 45 46 47 48 49 50
000
NZUS93 KARX 311959
HRRWXR

CURRENT HOURLY OBSERVATIONS ACROSS
MUCH OF THE UPPER MISSISSIPPI VALLEY
NATIONAL WEATHER SERVICE LA CROSSE WI
300 PM CDT SUN AUG 31 2014


...SOUTHEAST MINNESOTA...


CITY           SKY/WX    TMP DP  RH WIND       PRES   REMARKS
ROCHESTER      MOSUNNY   84  69  60 S16G24    29.78S
ROCHESTER/MAYO FAIR      84  65  51 S14G24    29.76F
WINONA         MOSUNNY   81  66  61 S6        29.76S
AUSTIN         MOSUNNY   82  70  65 S15       29.76F
ALBERT LEA     PTSUNNY   84  68  58 S15G22    29.74S
DODGE CENTER   MOSUNNY   86  70  58 S17       29.75F HX  90
PRESTON        MOSUNNY   81  72  74 S12       29.78F
OWATONNA       MOSUNNY   82  66  57 S12G20    29.73S
FARIBAULT      PTSUNNY   86  63  45 S13G22    29.72F
$$

...ELSEWHERE IN MINNESOTA...


CITY           SKY/WX    TMP DP  RH WIND       PRES   REMARKS
MINNEAPOLIS    PTSUNNY   84  66  54 S17G25    29.68F
INTNL FALLS    CLOUDY    68  59  73 VRB7G17   29.61F
DULUTH         CLOUDY    65  59  81 E13       29.72F
RED WING       MOSUNNY   88  66  48 S12G18    29.71F HX  90
REDWOOD FALLS  PTSUNNY   82  67  60 SW15      29.66S
MANKATO        PTSUNNY   81  66  61 S12G20    29.69F
WORTHINGTON    PTSUNNY   79  66  65 SW12      29.73S
FAIRMONT       CLOUDY    79  63  57 S12       29.71S
$$

...SOUTHWEST WISCONSIN...


CITY           SKY/WX    TMP DP  RH WIND       PRES   REMARKS
LA CROSSE      LGT RAIN  85  69  58 S17G25    29.77F
PRAIRIE DU CHI SUNNY     86  64  48 S10G16    29.81F
BOSCOBEL       SUNNY     88  66  48 S13G21    29.82F HX  90
LONE ROCK      NOT AVBL
PLATTEVILLE    SUNNY     83  68  61 S12       29.88F
FORT MC COY    MOSUNNY   84  64  51 S12       29.82F
VIROQUA        FAIR      82  66  58 S10G18    29.84F
WIS DELLS      MOSUNNY   85  64  49 S10       29.86F
$$

...ELSEWHERE IN WISCONSIN...


CITY           SKY/WX    TMP DP  RH WIND       PRES   REMARKS
MILWAUKEE      PTSUNNY   74  69  85 E12       29.91F
MADISON        PTSUNNY   84  66  54 S12       29.87F
GREEN BAY      PTSUNNY   75  67  76 VRB5      29.90F
EAU CLAIRE     PTSUNNY   81  69  67 SE14      29.76F
BLACK RVR FLS  CLOUDY    83  67  58 S8        29.80F
MEDFORD        SUNNY     75  64  69 SE10      29.84F
WAUSAU         MOSUNNY   77  64  64 SE12      29.85F
WIS RAPIDS     MOSUNNY   81  66  60 S10       29.86F
MARSHFIELD     MOSUNNY   78  68  71 SE10      29.84F
RICE LAKE      PTSUNNY   79  65  62 SE20      29.77F
$$

...NORTHEAST IOWA...


CITY           SKY/WX    TMP DP  RH WIND       PRES   REMARKS
WATERLOO       MOSUNNY   86  71  60 S14G26    29.78F HX  91
DUBUQUE        SUNNY     83  67  58 S15G22    29.86F
DECORAH        SUNNY     82  68  61 S15G22    29.81S
MASON CITY     PTSUNNY   88  70  55 S18G25    29.77F HX  93
CHARLES CITY   MOSUNNY   84  70  61 S16G22    29.79F
OELWEIN        SUNNY     84  70  61 S18G24    29.82F
$$

...ELSEWHERE IN IOWA...


CITY           SKY/WX    TMP DP  RH WIND       PRES   REMARKS
DES MOINES     CLOUDY    86  71  60 S12       29.79S HX  91
IOWA CITY      SUNNY     86  73  65 S13       29.85F HX  93
FORT DODGE     CLOUDY    82  70  65 SW12      29.78R
MARSHALLTOWN   PTSUNNY   85  72  65 S14       29.79F HX  91
CEDAR RAPIDS   SUNNY     86  73  65 S12       29.83F HX  93
$$

...NORTHERN ILLINOIS...


CITY           SKY/WX    TMP DP  RH WIND       PRES   REMARKS
CHICAGO-OHARE  MOSUNNY   84  64  50 SW10      29.90F
DUPAGE         MOSUNNY   84  67  56 S10       29.91F
CHICAGO-MIDWAY MOSUNNY   85  67  54 SW10      29.91F
MOLINE         SUNNY     86  68  54 S9        29.86F
ROCKFORD       MOSUNNY   84  66  54 S9        29.90F
STERLING       SUNNY     86  70  58 S7        29.89F HX  90
PEORIA         SUNNY     85  72  65 S10       29.90F HX  91
$$

NOTE: "FAIR" INDICATES FEW OR NO CLOUDS BELOW 12,000 FEET WITH NO
SIGNIFICANT WEATHER AND/OR OBSTRUCTIONS TO VISIBILITY. WIND
SPEEDS ARE IN MILES-PER-HOUR.



USA.gov is the U.S. government's official web portal to all federal, state and local government web resources and services.